Location: Newark
(41.0400°S, 62.7845°W)
Time: 23:29:42
(UTC+00:00)

Vanguard 2 - Pass Details

Date: 11 December 2021
Orbit: 554 x 2935 km, 32.9° (Epoch: 27 January)

Event Time Altitude Azimuth Distance (km) Brightness Sun altitude
Rises 00:16:06 0° 336° (NNW) 5,570 11.8 -7.0°
Reaches altitude 10° 00:20:07 10° 346° (NNW) 4,888 11.4 -7.5°
Maximum altitude 00:32:07 30° 39° (NE) 4,123 10.7 -9.3°
Drops below altitude 10° 00:46:07 10° 91° (E) 5,767 11.6 -11.2°
Sets 00:51:19 0° 100° (E) 6,699 12.0 -11.9°
